Location: La Roque
(44.1928°N, 4.5183°E)
Time: 04:39:36
(UTC+00:00)

Daily predictions for brighter satellites

Satellite Brightness Start Highest point End
(mag) Time Altitude Azimuth Time Altitude Azimuth Time Altitude Azimuth
CENTAUR R/B 4.5 03:11:58 23° NNE 03:11:58 23° NNE 03:14:32 10° NE
Cosmos 2369 Rocket 4.1 03:51:55 21° NNE 03:51:55 21° NNE 03:53:41 10° NNE
CZ-2C R/B 4.3 03:52:22 10° SE 03:57:00 30° ENE 04:00:26 16° NNE
Cosmos 2344 4.3 04:05:25 36° NNW 04:05:25 36° NNW 04:11:25 10° NNE
Cosmos 2279 Rocket 4.3 04:06:27 26° N 04:10:03 63° E 04:16:10 10° SSE
Envisat 4.3 04:08:35 10° NNE 04:13:18 38° E 04:18:00 10° SSE
SJ 16-02 3.2 04:13:31 10° SSE 04:17:19 30° E 04:21:09 10° NE
USA 215 4.1 04:12:54 10° E 04:18:50 39° NNE 04:20:33 33° NNW
SL-4 R/B 4.2 04:24:19 17° SE 04:24:39 17° SE 04:27:01 10° E
Cosmos 1634 Rocket 4.4 04:34:54 44° SW 04:34:54 44° SW 04:39:16 10° SSW
ATLAS 5 CENTAUR R/B 1.6 04:41:25 62° ENE 04:41:25 62° ENE 04:45:08 10° NE
SKYMED 2 3.7 04:42:46 10° SSE 04:47:05 71° ENE 04:48:34 40° N
COSMOS 2487 4.0 04:47:50 28° NE 04:48:29 30° ENE 04:51:28 10° SE
Cosmos 1354 Rocket 4.0 04:53:50 55° W 04:54:23 58° WNW 04:59:39 10° NNE
H-2A R/B 4.5 04:51:46 10° ESE 04:55:01 21° ENE 04:58:20 10° NNE
CENTAUR R/B 3.9 04:59:09 22° NNW 04:59:46 23° NNW 05:05:28 10° NNE
CZ-4B R/B 4.1 04:55:47 10° NNE 05:00:18 81° ESE 05:04:44 10° S
DELTA 2 R/B (1) 4.0 04:59:49 37° WSW 05:01:35 52° S 05:06:57 10° ESE
CZ-4C R/B 3.4 05:02:53 10° SSE 05:05:55 51° ENE 05:06:54 35° NNE
SL-19 R/B 4.3 05:01:05 10° S 05:06:33 56° WSW 05:09:38 26° NW
Cosmos 2180 Rocket 4.4 05:03:01 10° NNW 05:09:04 61° W 05:15:05 10° S
CZ-3 R/B 4.3 04:59:59 10° SW 05:09:27 19° S 05:14:18 10° SE
BREEZE-M DEB (TANK) 4.3 05:06:52 25° WNW 05:14:34 81° SSW 05:18:45 10° SE
MOS 1-B Rocket 4.3 05:14:14 10° SSW 05:19:56 41° W 05:23:07 22° NW
Cosmos 1538 Rocket 4.0 05:16:45 14° NNW 05:21:16 82° ENE 05:26:26 10° SSE
Alouette 2 Rocket 3.4 05:20:03 14° N 05:23:04 68° ENE 05:26:50 10° SSE
Meteor 1-27 Rocket 3.7 05:17:48 10° NNW 05:23:28 72° W 05:29:15 10° S
ADEOS 3.6 05:22:39 10° NNE 05:27:55 88° ESE 05:33:08 10° SSW
BREEZE-M DEB (TANK) 4.5 05:26:10 23° W 05:29:06 39° SSW 05:45:46 10° SSE
Cosmos 2297 Rocket 3.2 05:24:32 10° NNW 05:29:57 44° ENE 05:35:20 10° SE
ATLAS 3B R/B 2.5 05:25:09 10° SW 05:31:41 73° NW 05:38:33 10° NE
Cosmos 1607 4.0 05:26:35 16° NNW 05:31:48 78° NE 05:37:56 10° SE
Meteor 2-15 Rocket 4.4 05:26:44 10° NNW 05:32:40 58° W 05:38:35 10° S
Cosmos 2369 Rocket 3.8 05:33:45 16° NW 05:33:45 16° NW 05:36:26 10° N
Landsat 5 3.8 05:28:50 10° S 05:33:12 50° W 05:36:39 15° NNW
Cosmos 1340 Rocket 2.8 05:30:40 10° SSW 05:34:34 57° WNW 05:38:32 10° N
COSMO-SKYMED 1 3.2 05:31:15 10° SSW 05:35:14 35° W 05:37:10 24° NW
SL-27 R/B 3.9 05:36:24 21° WSW 05:36:24 21° WSW 05:38:29 10° SSW
Cosmos 1777 Rocket 4.2 05:30:46 10° SW 05:35:46 46° WNW 05:40:50 10° N
CZ-2C R/B 3.1 05:32:03 10° SSW 05:37:09 40° W 05:41:55 11° NNW
CZ-4B R/B 3.8 05:34:43 10° ESE 05:37:17 22° ENE 05:39:50 10° NNE
Cosmos 1408 Rocket 4.2 05:37:25 10° SW 05:41:13 30° WNW 05:45:02 10° NNW
Cosmos 158 Rocket 3.9 05:36:53 12° NNW 05:41:40 69° WSW 05:46:55 10° S
CZ-4B R/B 2.7 05:40:41 10° NNE 05:44:16 80° ESE 05:47:56 10° S
Meteor 1-25 Rocket 4.2 05:39:28 10° S 05:45:05 86° W 05:50:41 10° N
FALCON 9 DEB 4.5 05:44:13 18° NNW 05:45:22 22° NNE 05:47:44 10° ENE
FAST Rocket 4.3 05:44:12 10° SSW 05:46:48 48° WNW 05:50:16 10° N
H-2A R/B 4.2 05:43:28 10° NE 05:47:38 27° E 05:51:50 10° SSE
SMAP 4.0 05:43:30 10° NNE 05:48:04 52° E 05:52:35 10° S
Lacrosse 5 3.0 05:43:48 10° SSW 05:48:38 46° SE 05:53:31 10° ENE
Meteor 1-31 Rocket 3.7 05:47:06 10° N 05:50:27 27° WNW 05:53:48 10° SW
USA 32 4.0 05:46:32 10° N 05:51:46 69° W 05:56:58 10° S
Envisat 3.8 05:47:51 10° N 05:52:10 29° WNW 05:56:28 10° SW
Cosmos 1743 Rocket 3.9 05:49:16 10° SSW 05:53:25 41° WNW 05:57:33 10° N
SJ 16-02 2.2 05:52:07 10° WSW 05:55:51 27° WNW 05:59:37 10° N
Cosmos 923 Rocket 4.3 05:50:55 10° NNW 05:56:16 74° ENE 06:01:36 10° SSE
OPS 6432 4.2 05:55:13 17° NW 05:57:26 87° SW 06:01:05 10° SE
CZ-2C R/B 2.9 05:53:15 10° N 05:58:12 70° WNW 06:03:23 10° SSW
Cosmos 1656 3.9 05:53:22 10° SSW 05:58:45 73° ESE 06:04:12 10° NNE
USA 215 3.3 05:54:51 10° SE 06:01:24 88° NE 06:07:53 10° NW
SL-4 R/B 1.6 06:00:12 10° WSW 06:03:42 75° NNW 06:07:28 10° ENE
Nadezhda 4 Rocket 4.5 05:58:21 10° SW 06:04:00 37° WNW 06:09:46 10° N
Cosmos 1666 Rocket 4.0 06:00:04 10° S 06:04:30 68° E 06:08:58 10° NNE
Lacrosse 4 Rocket 3.1 06:00:59 10° NNW 06:05:03 33° NE 06:09:06 10° ESE
NOAA 6 4.4 06:01:01 10° NNE 06:06:09 71° ESE 06:11:15 10° S
EO 1 Delta rocket 4.3 06:00:19 10° N 06:06:18 80° E 06:11:12 10° S
Cosmos 2227 Rocket 2.7 06:00:48 10° NNW 06:06:24 59° ENE 06:11:58 10° SE
IRAS Rocket 4.4 06:02:06 10° S 06:07:28 53° WSW 06:12:50 10° NNW
Cosmos 1939 Rocket 2.7 06:04:43 10° N 06:08:37 73° WNW 06:12:27 10° SSW
Cosmos 2228 Rocket 3.5 06:07:23 10° NNW 06:11:40 43° W 06:15:57 10° SSW
Okean 1 3.3 06:09:05 10° NNW 06:12:59 57° W 06:16:50 10° S
Meteor 2-4 Rocket 4.1 06:08:55 10° N 06:14:51 74° ENE 06:20:37 10° SSE
FengYun 1-2 T 4.2 06:10:53 10° N 06:16:22 77° WNW 06:21:51 10° SSW
Cosmos 1602 4.5 06:14:42 10° SW 06:18:04 30° WNW 06:21:29 10° NNW
Meteor PRIRODA 4.3 06:14:59 10° N 06:18:15 32° WNW 06:21:32 10° SW
Sich 1 3.3 06:14:32 10° SSW 06:18:38 45° WNW 06:22:45 10° N
Meteor 1-18 Rocket 4.3 06:15:45 10° NNW 06:21:34 73° W 06:27:13 10° S
Cosmos 990 Rocket 4.0 06:17:31 10° SSW 06:22:44 66° WNW 06:27:57 10° NNE
COSMOS 2487 4.2 06:20:59 10° WNW 06:22:51 15° W 06:24:50 10° SW
Cosmos 1937 Rocket 4.0 06:18:21 10° S 06:23:33 68° ESE 06:28:48 10° NNE
BREEZE M DEB (TANK) 2.0 06:20:59 10° WNW 06:23:43 53° NNE 06:25:43 10° E
Cosmos 2112 Rocket 4.2 06:19:02 10° NNW 06:24:23 82° ENE 06:29:39 10° SSE
Cosmos 1092 Rocket 4.4 06:19:00 10° SW 06:24:56 43° WNW 06:30:57 10° N
Cosmos 1500 3.7 06:21:57 10° SW 06:25:29 37° WNW 06:29:03 10° N
ATLAS 5 CENTAUR R/B 3.0 06:23:17 10° WNW 06:26:06 18° NNW 06:29:09 10° NNE
CZ-4B DEB 4.4 06:22:01 10° NNE 06:27:30 78° ESE 06:32:57 10° S
PSLV R/B 4.0 06:25:39 10° SSE 06:29:43 88° ENE 06:33:51 10° NNW
H-2A R/B 2.6 06:26:38 10° S 06:30:41 41° W 06:34:52 10° NNW
Geosat FO 4.4 06:28:51 10° SSE 06:32:09 78° WSW 06:35:30 10° NNW
Cosmos 1707 Rocket 3.8 06:29:57 10° NNW 06:34:16 50° W 06:38:34 10° SSW
Cosmos 1697 Rocket 3.1 06:28:44 10° SSW 06:34:19 70° ESE 06:39:55 10° NNE
